TimePST,TemperatureF,Dew PointF,Humidity,Sea Level PressureIn,VisibilityMPH,Wind Direction,Wind SpeedMPH,Gust SpeedMPH,PrecipitationIn,Events,Conditions,WindDirDegrees,DateUTC
12:56 AM,61.9,55.9,81,30.17,10.0,ESE,9.2,-,N/A,,Clear,120,2014-01-06 08:56:00
1:56 AM,59.9,54.0,81,30.18,10.0,ESE,9.2,-,N/A,,Clear,120,2014-01-06 09:56:00
2:56 AM,57.9,52.9,83,30.18,10.0,SSE,9.2,-,N/A,,Clear,150,2014-01-06 10:56:00
3:56 AM,59.9,54.0,81,30.17,10.0,ESE,11.5,-,N/A,,Clear,120,2014-01-06 11:56:00
4:56 AM,61.0,54.9,80,30.17,10.0,SE,11.5,-,N/A,,Clear,130,2014-01-06 12:56:00
5:56 AM,61.0,54.9,80,30.18,10.0,ESE,13.8,-,N/A,,Clear,120,2014-01-06 13:56:00
6:56 AM,61.0,54.0,78,30.19,10.0,SE,13.8,19.6,N/A,,Clear,130,2014-01-06 14:56:00
7:56 AM,61.9,55.9,81,30.22,10.0,ESE,12.7,-,N/A,,Clear,120,2014-01-06 15:56:00
8:56 AM,66.9,61.0,81,30.22,10.0,SSE,9.2,18.4,N/A,,Clear,150,2014-01-06 16:56:00
9:56 AM,70.9,63.9,78,30.22,10.0,ESE,17.3,21.9,N/A,,Clear,120,2014-01-06 17:56:00
10:56 AM,72.9,66.9,82,30.19,10.0,East,12.7,-,N/A,,Clear,100,2014-01-06 18:56:00
11:56 AM,74.8,66.9,76,30.15,10.0,SE,10.4,17.3,N/A,,Clear,140,2014-01-06 19:56:00
12:56 PM,75.9,68.9,79,30.12,10.0,SE,8.1,-,N/A,,Clear,130,2014-01-06 20:56:00
1:56 PM,77.9,70.0,76,30.11,10.0,East,11.5,-,N/A,,Clear,90,2014-01-06 21:56:00
2:56 PM,77.0,68.9,76,30.10,10.0,SE,9.2,-,N/A,,Partly Cloudy,130,2014-01-06 22:56:00
3:56 PM,75.9,68.0,76,30.10,10.0,East,9.2,-,N/A,,Clear,100,2014-01-06 23:56:00
4:56 PM,70.9,63.9,78,30.09,10.0,SSE,6.9,-,N/A,,Clear,150,2014-01-07 00:56:00
5:56 PM,68.9,61.0,76,30.12,10.0,SSE,5.8,-,N/A,,Clear,150,2014-01-07 01:56:00
6:56 PM,64.9,57.9,78,30.13,10.0,SSE,5.8,-,N/A,,Clear,150,2014-01-07 02:56:00
7:56 PM,63.0,55.9,78,30.13,10.0,SE,4.6,-,N/A,,Clear,130,2014-01-07 03:56:00
8:56 PM,61.9,54.9,78,30.13,10.0,SE,5.8,-,N/A,,Clear,140,2014-01-07 04:56:00
9:56 PM,50.9,45.0,80,30.14,10.0,East,3.5,-,N/A,,Clear,90,2014-01-07 05:56:00
10:56 PM,50.9,45.0,80,30.13,10.0,ESE,6.9,-,N/A,,Clear,110,2014-01-07 06:56:00
11:56 PM,41.0,36.0,82,30.14,10.0,Calm,Calm,-,0.02,,Clear,0,2014-01-07 07:56:00